Time,TemperatureF,DewpointF,PressureIn,WindDirection,WindDirectionDegrees,WindSpeedMPH,WindSpeedGustMPH,Humidity,HourlyPrecipIn,Conditions,Clouds,dailyrainin,SoftwareType,DateUTC
2013-04-26 00:01:00,46.4,26.2,29.93,East,100,1.8,3.5,45,0.00,CLR,SCT,0.00,WeatherDisplay:10.37,2013-04-26 04:01:00,
2013-04-26 00:06:00,46.8,27.6,29.93,ESE,122,2.4,4.0,47,0.00,CLR,SCT,0.00,WeatherDisplay:10.37,2013-04-26 04:06:00,
2013-04-26 00:11:00,47.0,27.3,29.93,East,88,1.7,3.0,46,0.00,CLR,SCT,0.00,WeatherDisplay:10.37,2013-04-26 04:11:00,
2013-04-26 00:16:00,46.4,27.8,29.93,ENE,58,1.8,6.0,48,0.00,CLR,SCT,0.00,WeatherDisplay:10.37,2013-04-26 04:16:00,
2013-04-26 00:21:00,45.9,27.3,29.93,East,89,2.6,4.0,48,0.00,CLR,SCT,0.00,WeatherDisplay:10.37,2013-04-26 04:21:00,
2013-04-26 00:26:00,45.8,27.7,29.93,East,95,1.8,4.6,49,0.00,CLR,SCT,0.00,WeatherDisplay:10.37,2013-04-26 04:26:00,
2013-04-26 00:31:00,46.0,27.4,29.93,East,95,2.0,5.0,48,0.00,CLR,SCT,0.00,WeatherDisplay:10.37,2013-04-26 04:31:00,
2013-04-26 00:36:00,46.5,26.8,29.93,East,92,1.6,5.8,46,0.00,CLR,SCT,0.00,WeatherDisplay:10.37,2013-04-26 04:36:00,
2013-04-26 00:41:00,46.9,26.1,29.93,East,98,2.6,4.6,44,0.00,CLR,SCT,0.00,WeatherDisplay:10.37,2013-04-26 04:41:00,
2013-04-26 00:46:00,46.9,26.6,29.93,ESE,107,2.3,4.6,45,0.00,CLR,SCT,0.00,WeatherDisplay:10.37,2013-04-26 04:46:00,
2013-04-26 00:51:00,46.8,27.1,29.93,East,90,1.9,4.6,46,0.00,CLR,SCT,0.00,WeatherDisplay:10.37,2013-04-26 04:51:00,
2013-04-26 00:56:00,46.5,26.3,29.93,East,84,2.0,5.0,45,0.00,CLR,SCT,0.00,WeatherDisplay:10.37,2013-04-26 04:56:00,
2013-04-26 01:01:00,46.4,26.7,29.93,ESE,108,1.8,3.5,46,0.00,CLR,SCT,0.00,WeatherDisplay:10.37,2013-04-26 05:01:00,
2013-04-26 01:06:00,46.3,26.6,29.93,ENE,57,1.2,3.5,46,0.00,CLR,SCT,0.00,WeatherDisplay:10.37,2013-04-26 05:06:00,
2013-04-26 01:11:00,46.4,25.6,29.93,East,98,1.4,5.8,44,0.00,CLR,SCT,0.00,WeatherDisplay:10.37,2013-04-26 05:11:00,
2013-04-26 01:16:00,46.4,26.7,29.93,East,96,0.1,1.1,46,0.00,CLR,SCT,0.00,WeatherDisplay:10.37,2013-04-26 05:16:00,
2013-04-26 01:21:00,46.1,27.0,29.93,East,96,0.8,1.1,47,0.00,CLR,SCT,0.00,WeatherDisplay:10.37,2013-04-26 05:21:00,
2013-04-26 01:26:00,45.4,26.3,29.93,East,96,0.4,1.1,47,0.00,CLR,SCT,0.00,WeatherDisplay:10.37,2013-04-26 05:26:00,
2013-04-26 01:31:00,45.1,26.1,29.93,East,96,0.0,0.0,47,0.00,CLR,SCT,0.00,WeatherDisplay:10.37,2013-04-26 05:31:00,
2013-04-26 01:36:00,45.0,26.0,29.93,East,96,0.0,0.0,47,0.00,CLR,SCT,0.00,WeatherDisplay:10.37,2013-04-26 05:36:00,
2013-04-26 01:41:00,45.0,25.4,29.93,East,96,0.0,0.0,46,0.00,CLR,SCT,0.00,WeatherDisplay:10.37,2013-04-26 05:41:00,
2013-04-26 01:46:00,44.9,26.4,29.93,East,96,0.7,2.3,48,0.00,CLR,SCT,0.00,WeatherDisplay:10.37,2013-04-26 05:46:00,
2013-04-26 01:51:00,44.6,25.6,29.93,East,96,0.0,0.0,47,0.00,CLR,SCT,0.00,WeatherDisplay:10.37,2013-04-26 05:51:00,
2013-04-26 01:56:00,44.5,25.0,29.93,ENE,76,0.0,1.1,46,0.00,CLR,SCT,0.00,WeatherDisplay:10.37,2013-04-26 05:56:00,
2013-04-26 02:01:00,44.4,24.9,29.93,ENE,66,0.1,2.3,46,0.00,CLR,SCT,0.00,WeatherDisplay:10.37,2013-04-26 06:01:00,
2013-04-26 02:06:00,44.4,25.4,29.93,ENE,67,0.0,1.1,47,0.00,CLR,SCT,0.00,WeatherDisplay:10.37,2013-04-26 06:06:00,
2013-04-26 02:11:00,44.1,25.6,29.93,ENE,67,0.0,1.1,48,0.00,CLR,SCT,0.00,WeatherDisplay:10.37,2013-04-26 06:11:00,
2013-04-26 02:16:00,43.9,24.9,29.93,ENE,67,0.0,1.1,47,0.00,CLR,SCT,0.00,WeatherDisplay:10.37,2013-04-26 06:16:00,
2013-04-26 02:21:00,44.0,25.0,29.93,ENE,67,0.8,2.3,47,0.00,CLR,SCT,0.00,WeatherDisplay:10.37,2013-04-26 06:21:00,
2013-04-26 02:26:00,44.0,24.5,29.94,ENE,67,0.0,1.1,46,0.00,CLR,SCT,0.00,WeatherDisplay:10.37,2013-04-26 06:26:00,
2013-04-26 02:31:00,44.0,24.5,29.94,ENE,67,0.9,1.1,46,0.00,CLR,SCT,0.00,WeatherDisplay:10.37,2013-04-26 06:31:00,
2013-04-26 02:36:00,44.1,24.6,29.94,ENE,67,0.0,1.1,46,0.00,CLR,SCT,0.00,WeatherDisplay:10.37,2013-04-26 06:36:00,
2013-04-26 02:41:00,44.2,24.7,29.94,ENE,67,0.2,1.1,46,0.00,CLR,SCT,0.00,WeatherDisplay:10.37,2013-04-26 06:41:00,
2013-04-26 02:46:00,44.2,24.7,29.94,ENE,67,0.0,0.0,46,0.00,CLR,SCT,0.00,WeatherDisplay:10.37,2013-04-26 06:46:00,
2013-04-26 02:51:00,44.1,24.6,29.94,ENE,67,0.5,2.3,46,0.00,CLR,SCT,0.00,WeatherDisplay:10.37,2013-04-26 06:51:00,
2013-04-26 02:56:00,44.0,25.0,29.94,ENE,67,0.0,0.0,47,0.00,CLR,SCT,0.00,WeatherDisplay:10.37,2013-04-26 06:56:00,
2013-04-26 03:01:00,43.9,24.4,29.94,ENE,67,0.0,0.0,46,0.00,CLR,SCT,0.00,WeatherDisplay:10.37,2013-04-26 07:01:00,
2013-04-26 03:06:00,43.8,24.3,29.94,ENE,67,0.0,0.0,46,0.00,CLR,SCT,0.00,WeatherDisplay:10.37,2013-04-26 07:06:00,
2013-04-26 03:11:00,43.8,24.9,29.94,ENE,67,0.0,0.0,47,0.00,CLR,SCT,0.00,WeatherDisplay:10.37,2013-04-26 07:11:00,
2013-04-26 03:16:00,43.8,24.9,29.94,ENE,67,0.0,0.0,47,0.00,CLR,SCT,0.00,WeatherDisplay:10.37,2013-04-26 07:16:00,
2013-04-26 03:21:00,43.8,24.9,29.94,ENE,67,0.0,0.0,47,0.00,CLR,SCT,0.00,WeatherDisplay:10.37,2013-04-26 07:21:00,
2013-04-26 03:26:00,43.6,24.7,29.94,ENE,67,0.0,0.0,47,0.00,CLR,SCT,0.00,WeatherDisplay:10.37,2013-04-26 07:26:00,
2013-04-26 03:31:00,43.5,24.6,29.94,ENE,67,0.0,0.0,47,0.00,CLR,SCT,0.00,WeatherDisplay:10.37,2013-04-26 07:31:00,
2013-04-26 03:36:00,43.4,24.5,29.94,ENE,67,0.0,0.0,47,0.00,CLR,SCT,0.00,WeatherDisplay:10.37,2013-04-26 07:36:00,
2013-04-26 03:41:00,43.4,24.0,29.94,ENE,67,0.0,0.0,46,0.00,CLR,SCT,0.00,WeatherDisplay:10.37,2013-04-26 07:41:00,
2013-04-26 03:46:00,43.5,23.5,29.94,ENE,67,0.2,1.1,45,0.00,CLR,SCT,0.00,WeatherDisplay:10.37,2013-04-26 07:46:00,
2013-04-26 03:51:00,43.6,23.1,29.94,ENE,67,0.0,0.0,44,0.00,CLR,SCT,0.00,WeatherDisplay:10.37,2013-04-26 07:51:00,
2013-04-26 03:56:00,43.8,23.3,29.95,ENE,67,0.4,1.1,44,0.00,CLR,SCT,0.00,WeatherDisplay:10.37,2013-04-26 07:56:00,
2013-04-26 04:01:00,43.9,23.4,29.95,ENE,67,0.1,1.1,44,0.00,CLR,SCT,0.00,WeatherDisplay:10.37,2013-04-26 08:01:00,
2013-04-26 04:06:00,43.8,23.8,29.95,ENE,67,0.1,1.0,45,0.00,CLR,SCT,0.00,WeatherDisplay:10.37,2013-04-26 08:06:00,
2013-04-26 04:11:00,43.6,23.6,29.95,ENE,67,0.0,0.0,45,0.00,CLR,SCT,0.00,WeatherDisplay:10.37,2013-04-26 08:11:00,
2013-04-26 04:16:00,43.4,23.4,29.96,ENE,67,0.3,1.1,45,0.00,CLR,SCT,0.00,WeatherDisplay:10.37,2013-04-26 08:16:00,
2013-04-26 04:21:00,43.1,23.7,29.96,ENE,67,0.0,0.0,46,0.00,CLR,SCT,0.00,WeatherDisplay:10.37,2013-04-26 08:21:00,
2013-04-26 04:26:00,43.0,23.6,29.96,ENE,67,0.0,0.0,46,0.00,CLR,SCT,0.00,WeatherDisplay:10.37,2013-04-26 08:26:00,
2013-04-26 04:31:00,42.8,23.4,29.96,NNE,17,1.8,3.5,46,0.00,CLR,SCT,0.00,WeatherDisplay:10.37,2013-04-26 08:31:00,
2013-04-26 04:36:00,42.6,23.2,29.96,NNE,17,0.0,0.0,46,0.00,CLR,SCT,0.00,WeatherDisplay:10.37,2013-04-26 08:36:00,
2013-04-26 04:41:00,42.4,24.1,29.96,NNE,17,0.1,1.1,48,0.00,CLR,SCT,0.00,WeatherDisplay:10.37,2013-04-26 08:41:00,
2013-04-26 04:46:00,42.2,23.4,29.96,NNE,16,1.0,2.3,47,0.00,CLR,SCT,0.00,WeatherDisplay:10.37,2013-04-26 08:46:00,
2013-04-26 04:51:00,42.3,23.0,29.96,NNE,16,0.5,1.1,46,0.00,CLR,SCT,0.00,WeatherDisplay:10.37,2013-04-26 08:51:00,
2013-04-26 04:56:00,42.3,25.0,29.96,East,100,1.7,3.5,50,0.00,CLR,SCT,0.00,WeatherDisplay:10.37,2013-04-26 08:56:00,
2013-04-26 05:01:00,41.7,23.9,29.96,East,80,0.5,1.1,49,0.00,CLR,SCT,0.00,WeatherDisplay:10.37,2013-04-26 09:01:00,
2013-04-26 05:06:00,41.6,23.3,29.96,East,80,0.0,0.0,48,0.00,CLR,SCT,0.00,WeatherDisplay:10.37,2013-04-26 09:06:00,
2013-04-26 05:11:00,41.5,23.2,29.97,East,80,0.4,1.1,48,0.00,CLR,SCT,0.00,WeatherDisplay:10.37,2013-04-26 09:11:00,
2013-04-26 05:16:00,41.7,22.9,29.97,East,80,0.0,0.0,47,0.00,CLR,SCT,0.00,WeatherDisplay:10.37,2013-04-26 09:16:00,
2013-04-26 05:21:00,42.0,23.2,29.97,East,80,0.0,0.0,47,0.00,CLR,SCT,0.00,WeatherDisplay:10.37,2013-04-26 09:21:00,
2013-04-26 05:26:00,42.1,23.3,29.97,East,80,0.0,0.0,47,0.00,CLR,SCT,0.00,WeatherDisplay:10.37,2013-04-26 09:26:00,
2013-04-26 05:31:00,41.9,23.6,29.98,East,81,0.9,1.0,48,0.00,CLR,SCT,0.00,WeatherDisplay:10.37,2013-04-26 09:31:00,
2013-04-26 05:36:00,41.6,22.8,29.98,East,81,0.0,0.0,47,0.00,CLR,SCT,0.00,WeatherDisplay:10.37,2013-04-26 09:36:00,
2013-04-26 05:41:00,41.6,23.3,29.98,East,81,0.0,0.0,48,0.00,CLR,SCT,0.00,WeatherDisplay:10.37,2013-04-26 09:41:00,
2013-04-26 05:46:00,41.4,23.2,29.98,East,81,0.2,1.1,48,0.00,CLR,SCT,0.00,WeatherDisplay:10.37,2013-04-26 09:46:00,
2013-04-26 05:51:00,41.4,23.2,29.99,East,81,0.0,1.1,48,0.00,CLR,SCT,0.00,WeatherDisplay:10.37,2013-04-26 09:51:00,
2013-04-26 05:56:00,41.4,23.2,29.99,East,81,0.0,0.0,48,0.00,CLR,SCT,0.00,WeatherDisplay:10.37,2013-04-26 09:56:00,
2013-04-26 06:01:00,41.4,23.2,29.99,East,81,0.0,0.0,48,0.00,CLR,SCT,0.00,WeatherDisplay:10.37,2013-04-26 10:01:00,
2013-04-26 06:06:00,41.1,23.9,29.99,East,81,0.1,0.0,50,0.00,CLR,SCT,0.00,WeatherDisplay:10.37,2013-04-26 10:06:00,
2013-04-26 06:11:00,41.2,23.5,29.99,East,81,0.0,0.0,49,0.00,CLR,SCT,0.00,WeatherDisplay:10.37,2013-04-26 10:11:00,
2013-04-26 06:16:00,41.5,23.7,29.99,East,81,0.1,1.1,49,0.00,CLR,SCT,0.00,WeatherDisplay:10.37,2013-04-26 10:16:00,
2013-04-26 06:21:00,41.6,23.8,30.00,East,81,0.1,1.1,49,0.00,CLR,SCT,0.00,WeatherDisplay:10.37,2013-04-26 10:21:00,
2013-04-26 06:26:00,42.0,24.2,30.00,East,81,0.0,0.0,49,0.00,CLR,SCT,0.00,WeatherDisplay:10.37,2013-04-26 10:26:00,
2013-04-26 06:31:00,42.3,24.0,30.00,East,81,0.1,1.1,48,0.00,CLR,SCT,0.00,WeatherDisplay:10.37,2013-04-26 10:31:00,
2013-04-26 06:36:00,42.4,24.1,30.00,East,81,0.1,0.0,48,0.00,CLR,SCT,0.00,WeatherDisplay:10.37,2013-04-26 10:36:00,
2013-04-26 06:41:00,42.6,24.3,30.00,East,81,0.0,0.0,48,0.00,CLR,SCT,0.00,WeatherDisplay:10.37,2013-04-26 10:41:00,
2013-04-26 06:46:00,42.5,24.2,30.00,East,81,0.0,0.0,48,0.00,CLR,SCT,0.00,WeatherDisplay:10.37,2013-04-26 10:46:00,
2013-04-26 06:51:00,42.6,24.3,30.01,East,81,0.4,1.0,48,0.00,CLR,SCT,0.00,WeatherDisplay:10.37,2013-04-26 10:51:00,
2013-04-26 06:56:00,42.9,24.5,30.01,East,81,0.2,1.1,48,0.00,CLR,SCT,0.00,WeatherDisplay:10.37,2013-04-26 10:56:00,
2013-04-26 07:01:00,43.1,24.2,30.01,East,81,0.3,2.3,47,0.00,CLR,SCT,0.00,WeatherDisplay:10.37,2013-04-26 11:01:00,
2013-04-26 07:06:00,43.3,25.4,30.01,East,81,0.2,1.0,49,0.00,CLR,SCT,0.00,WeatherDisplay:10.37,2013-04-26 11:06:00,
2013-04-26 07:11:00,43.2,26.3,30.02,East,81,0.4,1.1,51,0.00,CLR,SCT,0.00,WeatherDisplay:10.37,2013-04-26 11:11:00,
2013-04-26 07:16:00,43.0,25.1,30.02,East,81,0.5,1.0,49,0.00,CLR,SCT,0.00,WeatherDisplay:10.37,2013-04-26 11:16:00,
2013-04-26 07:21:00,42.8,24.4,30.02,East,81,0.0,1.1,48,0.00,CLR,SCT,0.00,WeatherDisplay:10.37,2013-04-26 11:21:00,
2013-04-26 07:26:00,42.9,25.0,30.02,East,81,0.9,2.3,49,0.00,CLR,SCT,0.00,WeatherDisplay:10.37,2013-04-26 11:26:00,
2013-04-26 07:31:00,43.2,25.8,30.02,East,80,0.7,1.1,50,0.00,CLR,SCT,0.00,WeatherDisplay:10.37,2013-04-26 11:31:00,
2013-04-26 07:36:00,43.6,25.2,30.02,NNE,18,2.7,3.5,48,0.00,CLR,SCT,0.00,WeatherDisplay:10.37,2013-04-26 11:36:00,
2013-04-26 07:41:00,43.9,26.9,30.02,NNE,17,1.4,2.3,51,0.00,CLR,SCT,0.00,WeatherDisplay:10.37,2013-04-26 11:41:00,
2013-04-26 07:46:00,44.1,26.6,30.03,North,11,1.1,2.3,50,0.00,CLR,SCT,0.00,WeatherDisplay:10.37,2013-04-26 11:46:00,
2013-04-26 07:51:00,44.2,26.2,30.03,North,355,1.2,2.3,49,0.00,CLR,SCT,0.00,WeatherDisplay:10.37,2013-04-26 11:51:00,
2013-04-26 07:56:00,44.3,26.3,30.03,NW,326,1.4,3.0,49,0.00,CLR,SCT,0.00,WeatherDisplay:10.37,2013-04-26 11:56:00,
2013-04-26 08:01:00,44.7,25.7,30.03,NNW,335,1.7,2.3,47,0.00,CLR,SCT,0.00,WeatherDisplay:10.37,2013-04-26 12:01:00,
2013-04-26 08:06:00,45.2,27.2,30.03,NW,321,2.2,3.5,49,0.00,CLR,SCT,0.00,WeatherDisplay:10.37,2013-04-26 12:06:00,
2013-04-26 08:11:00,45.6,27.5,30.04,NW,326,1.3,2.3,49,0.00,CLR,SCT,0.00,WeatherDisplay:10.37,2013-04-26 12:11:00,
2013-04-26 08:16:00,46.0,27.4,30.04,NNW,328,2.7,2.7,48,0.00,CLR,SCT,0.00,WeatherDisplay:10.37,2013-04-26 12:16:00,
2013-04-26 08:21:00,46.4,27.8,30.04,NNW,328,1.0,2.3,48,0.00,CLR,SCT,0.00,WeatherDisplay:10.37,2013-04-26 12:21:00,
2013-04-26 08:26:00,46.8,28.1,30.04,NNW,347,1.3,4.0,48,0.00,CLR,SCT,0.00,WeatherDisplay:10.37,2013-04-26 12:26:00,
2013-04-26 08:31:00,47.2,28.5,30.03,NW,324,0.6,1.1,48,0.00,CLR,SCT,0.00,WeatherDisplay:10.37,2013-04-26 12:31:00,
2013-04-26 08:36:00,47.6,27.3,30.03,NNW,348,1.2,3.5,45,0.00,CLR,SCT,0.00,WeatherDisplay:10.37,2013-04-26 12:36:00,
2013-04-26 08:41:00,48.0,28.2,30.04,NW,305,1.2,2.3,46,0.00,CLR,SCT,0.00,WeatherDisplay:10.37,2013-04-26 12:41:00,
2013-04-26 08:46:00,48.4,28.0,30.04,North,9,1.9,4.0,45,0.00,CLR,SCT,0.00,WeatherDisplay:10.37,2013-04-26 12:46:00,
2013-04-26 08:51:00,48.8,28.4,30.04,NW,310,3.2,5.0,45,0.00,CLR,SCT,0.00,WeatherDisplay:10.37,2013-04-26 12:51:00,
2013-04-26 08:56:00,49.2,28.2,30.03,NW,312,2.2,3.5,44,0.00,CLR,SCT,0.00,WeatherDisplay:10.37,2013-04-26 12:56:00,
2013-04-26 09:01:00,49.5,28.5,30.03,WNW,300,2.2,3.5,44,0.00,CLR,SCT,0.00,WeatherDisplay:10.37,2013-04-26 13:01:00,
2013-04-26 09:06:00,50.2,28.0,30.03,West,275,0.9,3.5,42,0.00,CLR,SCT,0.00,WeatherDisplay:10.37,2013-04-26 13:06:00,
2013-04-26 09:11:00,50.9,28.0,30.03,North,360,2.7,7.0,41,0.00,CLR,SCT,0.00,WeatherDisplay:10.37,2013-04-26 13:11:00,
2013-04-26 09:16:00,51.4,29.1,30.04,NW,307,2.0,2.3,42,0.00,CLR,SCT,0.00,WeatherDisplay:10.37,2013-04-26 13:16:00,
2013-04-26 09:21:00,51.7,28.7,30.04,North,360,2.2,3.5,41,0.00,CLR,SCT,0.00,WeatherDisplay:10.37,2013-04-26 13:21:00,
2013-04-26 09:26:00,52.1,27.9,30.04,North,5,3.7,5.8,39,0.00,CLR,SCT,0.00,WeatherDisplay:10.37,2013-04-26 13:26:00,
2013-04-26 09:31:00,52.4,28.1,30.04,North,5,4.7,6.0,39,0.00,CLR,SCT,0.00,WeatherDisplay:10.37,2013-04-26 13:31:00,
2013-04-26 09:36:00,52.4,27.5,30.04,NW,318,3.6,4.6,38,0.00,CLR,SCT,0.00,WeatherDisplay:10.37,2013-04-26 13:36:00,
2013-04-26 09:41:00,52.6,28.3,30.04,WNW,289,3.6,9.2,39,0.00,CLR,SCT,0.00,WeatherDisplay:10.37,2013-04-26 13:41:00,
2013-04-26 09:46:00,53.0,28.0,30.04,NNW,341,3.6,6.9,38,0.00,CLR,SCT,0.00,WeatherDisplay:10.37,2013-04-26 13:46:00,
2013-04-26 09:51:00,53.2,28.9,30.04,North,9,2.5,4.6,39,0.00,CLR,SCT,0.00,WeatherDisplay:10.37,2013-04-26 13:51:00,
2013-04-26 09:56:00,53.2,28.2,30.04,NNW,329,4.2,6.9,38,0.00,CLR,SCT,0.00,WeatherDisplay:10.37,2013-04-26 13:56:00,
2013-04-26 10:01:00,53.4,27.8,30.04,NW,306,3.8,5.8,37,0.00,CLR,SCT,0.00,WeatherDisplay:10.37,2013-04-26 14:01:00,
2013-04-26 10:06:00,53.5,29.1,30.04,NW,313,4.3,5.0,39,0.00,CLR,SCT,0.00,WeatherDisplay:10.37,2013-04-26 14:06:00,
2013-04-26 10:11:00,53.3,30.2,30.05,NW,319,0.5,2.0,41,0.00,CLR,SCT,0.00,WeatherDisplay:10.37,2013-04-26 14:11:00,
2013-04-26 10:16:00,53.9,28.8,30.04,NW,306,3.2,4.6,38,0.00,CLR,SCT,0.00,WeatherDisplay:10.37,2013-04-26 14:16:00,
2013-04-26 10:21:00,54.5,29.4,30.05,NW,309,4.3,6.0,38,0.00,CLR,SCT,0.00,WeatherDisplay:10.37,2013-04-26 14:21:00,
2013-04-26 10:26:00,54.7,30.2,30.04,North,5,1.9,5.8,39,0.00,CLR,SCT,0.00,WeatherDisplay:10.37,2013-04-26 14:26:00,
2013-04-26 10:31:00,55.0,29.8,30.04,NW,324,1.3,5.8,38,0.00,CLR,SCT,0.00,WeatherDisplay:10.37,2013-04-26 14:31:00,
2013-04-26 10:36:00,54.8,29.0,30.05,NW,324,2.6,4.6,37,0.00,CLR,SCT,0.00,WeatherDisplay:10.37,2013-04-26 14:36:00,
2013-04-26 10:41:00,55.0,29.2,30.05,WNW,302,4.3,8.1,37,0.00,CLR,SCT,0.00,WeatherDisplay:10.37,2013-04-26 14:41:00,
2013-04-26 10:46:00,54.7,31.4,30.05,NNW,329,3.2,5.0,41,0.00,CLR,SCT,0.00,WeatherDisplay:10.37,2013-04-26 14:46:00,
2013-04-26 10:51:00,55.1,29.3,30.05,WNW,298,1.8,4.6,37,0.00,CLR,SCT,0.00,WeatherDisplay:10.37,2013-04-26 14:51:00,
2013-04-26 10:56:00,55.9,31.3,30.05,WNW,284,1.4,4.6,39,0.00,CLR,SCT,0.00,WeatherDisplay:10.37,2013-04-26 14:56:00,
2013-04-26 11:01:00,56.0,30.7,30.05,West,277,4.9,5.8,38,0.00,CLR,SCT,0.00,WeatherDisplay:10.37,2013-04-26 15:01:00,
2013-04-26 11:06:00,55.7,31.1,30.05,WNW,298,4.1,6.9,39,0.00,CLR,SCT,0.00,WeatherDisplay:10.37,2013-04-26 15:06:00,
2013-04-26 11:11:00,55.7,31.1,30.05,NW,317,2.9,6.9,39,0.00,CLR,SCT,0.00,WeatherDisplay:10.37,2013-04-26 15:11:00,
2013-04-26 11:16:00,56.0,32.6,30.04,NW,322,4.3,6.9,41,0.00,CLR,SCT,0.00,WeatherDisplay:10.37,2013-04-26 15:16:00,
2013-04-26 11:21:00,56.7,34.4,30.05,NNW,344,2.4,5.0,43,0.00,CLR,SCT,0.00,WeatherDisplay:10.37,2013-04-26 15:21:00,
2013-04-26 11:26:00,56.7,33.8,30.04,NW,310,1.8,4.6,42,0.00,CLR,SCT,0.00,WeatherDisplay:10.37,2013-04-26 15:26:00,
2013-04-26 11:31:00,57.2,33.1,30.04,NNW,327,4.0,6.9,40,0.00,CLR,SCT,0.00,WeatherDisplay:10.37,2013-04-26 15:31:00,
2013-04-26 11:36:00,56.9,32.8,30.04,WSW,251,4.2,6.9,40,0.00,CLR,SCT,0.00,WeatherDisplay:10.37,2013-04-26 15:36:00,
2013-04-26 11:41:00,57.1,35.4,30.04,NW,313,0.8,3.5,44,0.00,CLR,SCT,0.00,WeatherDisplay:10.37,2013-04-26 15:41:00,
2013-04-26 11:46:00,57.8,33.6,30.04,NNW,328,4.3,8.1,40,0.00,CLR,SCT,0.00,WeatherDisplay:10.37,2013-04-26 15:46:00,
2013-04-26 11:51:00,58.1,33.2,30.04,NW,304,3.8,6.0,39,0.00,CLR,SCT,0.00,WeatherDisplay:10.37,2013-04-26 15:51:00,
2013-04-26 11:56:00,57.7,35.9,30.04,WSW,257,0.7,2.3,44,0.00,CLR,SCT,0.00,WeatherDisplay:10.37,2013-04-26 15:56:00,
2013-04-26 12:01:00,58.6,34.3,30.04,NE,37,6.4,6.9,40,0.00,CLR,SCT,0.00,WeatherDisplay:10.37,2013-04-26 16:01:00,
2013-04-26 12:06:00,59.0,33.4,30.04,NW,326,4.1,5.8,38,0.00,CLR,SCT,0.00,WeatherDisplay:10.37,2013-04-26 16:06:00,
2013-04-26 12:11:00,58.7,33.8,30.04,NW,325,3.5,6.0,39,0.00,CLR,SCT,0.00,WeatherDisplay:10.37,2013-04-26 16:11:00,
2013-04-26 12:16:00,57.9,34.3,30.04,NNW,331,4.4,5.8,41,0.00,CLR,SCT,0.00,WeatherDisplay:10.37,2013-04-26 16:16:00,
2013-04-26 12:21:00,57.4,32.0,30.03,SE,133,2.4,3.5,38,0.00,CLR,SCT,0.00,WeatherDisplay:10.37,2013-04-26 16:21:00,
2013-04-26 12:26:00,57.1,32.4,30.03,WSW,252,2.2,5.8,39,0.00,CLR,SCT,0.00,WeatherDisplay:10.37,2013-04-26 16:26:00,
2013-04-26 12:31:00,56.8,32.1,30.03,South,179,1.1,2.3,39,0.00,CLR,SCT,0.00,WeatherDisplay:10.37,2013-04-26 16:31:00,
2013-04-26 12:36:00,57.7,32.9,30.03,SW,222,4.5,6.0,39,0.00,CLR,SCT,0.00,WeatherDisplay:10.37,2013-04-26 16:36:00,
2013-04-26 12:41:00,57.3,33.2,30.03,SSW,201,2.0,4.6,40,0.00,CLR,SCT,0.00,WeatherDisplay:10.37,2013-04-26 16:41:00,
2013-04-26 12:46:00,58.5,32.3,30.03,South,184,0.7,4.6,37,0.00,CLR,SCT,0.00,WeatherDisplay:10.37,2013-04-26 16:46:00,
2013-04-26 12:51:00,58.1,31.9,30.03,West,268,4.0,7.0,37,0.00,CLR,SCT,0.00,WeatherDisplay:10.37,2013-04-26 16:51:00,
2013-04-26 12:56:00,58.3,33.4,30.02,West,281,3.5,6.0,39,0.00,CLR,SCT,0.00,WeatherDisplay:10.37,2013-04-26 16:56:00,
2013-04-26 13:01:00,59.5,32.5,30.02,NNW,336,4.1,6.9,36,0.00,CLR,SCT,0.00,WeatherDisplay:10.37,2013-04-26 17:01:00,
2013-04-26 13:06:00,59.8,32.8,30.02,West,273,1.7,3.0,36,0.00,CLR,SCT,0.00,WeatherDisplay:10.37,2013-04-26 17:06:00,
2013-04-26 13:11:00,59.6,31.9,30.02,WNW,290,3.4,5.0,35,0.00,CLR,SCT,0.00,WeatherDisplay:10.37,2013-04-26 17:11:00,
2013-04-26 13:16:00,60.2,34.5,30.02,West,273,2.8,5.0,38,0.00,CLR,SCT,0.00,WeatherDisplay:10.37,2013-04-26 17:16:00,
2013-04-26 13:21:00,60.2,31.7,30.02,North,360,3.4,6.9,34,0.00,CLR,SCT,0.00,WeatherDisplay:10.37,2013-04-26 17:21:00,
2013-04-26 13:26:00,59.6,36.5,30.02,NW,318,0.7,5.8,42,0.00,CLR,SCT,0.00,WeatherDisplay:10.37,2013-04-26 17:26:00,
2013-04-26 13:31:00,59.8,33.5,30.02,NW,304,4.0,4.6,37,0.00,CLR,SCT,0.00,WeatherDisplay:10.37,2013-04-26 17:31:00,
2013-04-26 13:36:00,59.6,32.6,30.02,WSW,249,2.5,4.6,36,0.00,CLR,SCT,0.00,WeatherDisplay:10.37,2013-04-26 17:36:00,
2013-04-26 13:41:00,60.3,33.2,30.02,WSW,247,4.7,9.2,36,0.00,CLR,SCT,0.00,WeatherDisplay:10.37,2013-04-26 17:41:00,
2013-04-26 13:46:00,59.8,32.1,30.02,SW,234,1.7,4.6,35,0.00,CLR,SCT,0.00,WeatherDisplay:10.37,2013-04-26 17:46:00,
2013-04-26 13:51:00,59.4,31.7,30.02,West,267,2.4,4.0,35,0.00,CLR,SCT,0.00,WeatherDisplay:10.37,2013-04-26 17:51:00,
2013-04-26 13:56:00,59.3,31.6,30.02,WSW,238,1.3,6.9,35,0.00,CLR,SCT,0.00,WeatherDisplay:10.37,2013-04-26 17:56:00,
2013-04-26 14:01:00,58.9,30.6,30.02,WNW,297,2.5,5.8,34,0.00,CLR,SCT,0.00,WeatherDisplay:10.37,2013-04-26 18:01:00,
2013-04-26 14:06:00,58.7,31.8,30.02,West,269,2.9,5.8,36,0.00,CLR,SCT,0.00,WeatherDisplay:10.37,2013-04-26 18:06:00,
2013-04-26 14:11:00,60.0,33.6,30.02,NNE,26,1.0,3.5,37,0.00,CLR,SCT,0.00,WeatherDisplay:10.37,2013-04-26 18:11:00,
2013-04-26 14:16:00,60.9,31.6,30.02,NNW,340,5.7,8.1,33,0.00,CLR,SCT,0.00,WeatherDisplay:10.37,2013-04-26 18:16:00,
2013-04-26 14:21:00,60.0,32.2,30.02,WNW,298,4.6,6.0,35,0.00,CLR,SCT,0.00,WeatherDisplay:10.37,2013-04-26 18:21:00,
2013-04-26 14:26:00,61.2,33.3,30.01,WNW,298,2.0,3.5,35,0.00,CLR,SCT,0.00,WeatherDisplay:10.37,2013-04-26 18:26:00,
2013-04-26 14:31:00,61.7,32.3,30.01,SW,233,3.8,5.8,33,0.00,CLR,SCT,0.00,WeatherDisplay:10.37,2013-04-26 18:31:00,
2013-04-26 14:36:00,61.5,32.8,30.01,WNW,302,2.9,3.5,34,0.00,CLR,SCT,0.00,WeatherDisplay:10.37,2013-04-26 18:36:00,
2013-04-26 14:41:00,61.1,31.8,30.01,WNW,300,2.0,4.6,33,0.00,CLR,SCT,0.00,WeatherDisplay:10.37,2013-04-26 18:41:00,
2013-04-26 14:46:00,60.3,31.8,30.01,WNW,291,5.5,8.1,34,0.00,CLR,SCT,0.00,WeatherDisplay:10.37,2013-04-26 18:46:00,
2013-04-26 14:51:00,60.4,32.6,30.02,WNW,282,5.8,6.9,35,0.00,CLR,SCT,0.00,WeatherDisplay:10.37,2013-04-26 18:51:00,
2013-04-26 14:56:00,60.1,31.6,30.02,WNW,302,5.3,5.8,34,0.00,CLR,SCT,0.00,WeatherDisplay:10.37,2013-04-26 18:56:00,
2013-04-26 15:01:00,60.2,32.4,30.01,WNW,302,4.3,5.0,35,0.00,CLR,SCT,0.00,WeatherDisplay:10.37,2013-04-26 19:01:00,
2013-04-26 15:06:00,60.1,31.6,30.01,NNE,14,4.2,6.9,34,0.00,CLR,SCT,0.00,WeatherDisplay:10.37,2013-04-26 19:06:00,
2013-04-26 15:11:00,59.7,30.5,30.01,NW,318,5.0,6.9,33,0.00,CLR,SCT,0.00,WeatherDisplay:10.37,2013-04-26 19:11:00,
2013-04-26 15:16:00,60.4,31.1,30.01,SSW,192,1.7,4.6,33,0.00,CLR,SCT,0.00,WeatherDisplay:10.37,2013-04-26 19:16:00,
2013-04-26 15:21:00,61.6,32.2,30.01,NNW,331,6.4,10.4,33,0.00,CLR,SCT,0.00,WeatherDisplay:10.37,2013-04-26 19:21:00,
2013-04-26 15:26:00,61.0,31.7,30.01,NNW,334,3.6,6.0,33,0.00,CLR,SCT,0.00,WeatherDisplay:10.37,2013-04-26 19:26:00,
2013-04-26 15:31:00,60.3,30.3,30.02,WNW,284,4.0,6.9,32,0.00,CLR,SCT,0.00,WeatherDisplay:10.37,2013-04-26 19:31:00,
2013-04-26 15:36:00,61.6,35.1,30.01,North,9,2.5,5.8,37,0.00,CLR,SCT,0.00,WeatherDisplay:10.37,2013-04-26 19:36:00,
2013-04-26 15:41:00,61.4,32.8,30.01,WSW,252,4.2,6.9,34,0.00,CLR,SCT,0.00,WeatherDisplay:10.37,2013-04-26 19:41:00,
2013-04-26 15:46:00,60.4,29.6,30.01,WSW,251,4.6,6.0,31,0.00,CLR,SCT,0.00,WeatherDisplay:10.37,2013-04-26 19:46:00,
2013-04-26 15:51:00,59.7,29.8,30.01,SW,228,3.4,4.6,32,0.00,CLR,SCT,0.00,WeatherDisplay:10.37,2013-04-26 19:51:00,
2013-04-26 15:56:00,59.6,31.2,30.01,WNW,300,3.7,8.1,34,0.00,CLR,SCT,0.00,WeatherDisplay:10.37,2013-04-26 19:56:00,
2013-04-26 16:01:00,60.2,32.4,30.01,NW,311,4.0,8.0,35,0.00,CLR,SCT,0.00,WeatherDisplay:10.37,2013-04-26 20:01:00,
2013-04-26 16:06:00,60.2,32.4,30.01,NW,315,5.4,5.4,35,0.00,CLR,SCT,0.00,WeatherDisplay:10.37,2013-04-26 20:06:00,
2013-04-26 16:11:00,60.4,31.1,30.01,NNW,348,3.7,6.9,33,0.00,CLR,SCT,0.00,WeatherDisplay:10.37,2013-04-26 20:11:00,
2013-04-26 16:16:00,60.5,31.2,30.01,NNW,333,5.5,8.0,33,0.00,CLR,SCT,0.00,WeatherDisplay:10.37,2013-04-26 20:16:00,
2013-04-26 16:21:00,60.0,29.2,30.01,NW,316,5.1,6.9,31,0.00,CLR,SCT,0.00,WeatherDisplay:10.37,2013-04-26 20:21:00,
2013-04-26 16:26:00,59.5,31.1,30.01,North,350,4.1,7.0,34,0.00,CLR,SCT,0.00,WeatherDisplay:10.37,2013-04-26 20:26:00,
2013-04-26 16:31:00,59.8,27.4,30.01,NNE,22,5.5,6.0,29,0.00,CLR,SCT,0.00,WeatherDisplay:10.37,2013-04-26 20:31:00,
2013-04-26 16:36:00,60.2,28.6,30.01,WSW,241,1.0,4.6,30,0.00,CLR,SCT,0.00,WeatherDisplay:10.37,2013-04-26 20:36:00,
2013-04-26 16:41:00,60.7,28.2,30.01,WSW,257,1.9,4.6,29,0.00,CLR,SCT,0.00,WeatherDisplay:10.37,2013-04-26 20:41:00,
2013-04-26 16:46:00,60.2,26.9,30.01,NNW,340,5.7,8.1,28,0.00,CLR,SCT,0.00,WeatherDisplay:10.37,2013-04-26 20:46:00,
2013-04-26 16:51:00,60.1,29.3,30.01,NNW,341,4.9,6.9,31,0.00,CLR,SCT,0.00,WeatherDisplay:10.37,2013-04-26 20:51:00,
2013-04-26 16:56:00,59.8,29.9,30.01,NW,317,3.3,5.8,32,0.00,CLR,SCT,0.00,WeatherDisplay:10.37,2013-04-26 20:56:00,
2013-04-26 17:01:00,59.8,29.9,30.00,NW,304,0.8,2.3,32,0.00,CLR,SCT,0.00,WeatherDisplay:10.37,2013-04-26 21:01:00,
2013-04-26 17:06:00,59.8,29.1,30.01,NNW,336,3.6,5.8,31,0.00,CLR,SCT,0.00,WeatherDisplay:10.37,2013-04-26 21:06:00,
2013-04-26 17:11:00,59.8,29.1,30.01,NW,305,3.1,5.8,31,0.00,CLR,SCT,0.00,WeatherDisplay:10.37,2013-04-26 21:11:00,
2013-04-26 17:16:00,59.6,28.9,30.01,NNW,347,2.0,3.5,31,0.00,CLR,SCT,0.00,WeatherDisplay:10.37,2013-04-26 21:16:00,
2013-04-26 17:21:00,59.4,28.7,30.01,NNW,327,5.4,6.9,31,0.00,CLR,SCT,0.00,WeatherDisplay:10.37,2013-04-26 21:21:00,
2013-04-26 17:26:00,59.3,30.2,30.01,NW,309,5.8,7.0,33,0.00,CLR,SCT,0.00,WeatherDisplay:10.37,2013-04-26 21:26:00,
2013-04-26 17:31:00,59.1,28.5,30.01,NW,320,2.8,11.5,31,0.00,CLR,SCT,0.00,WeatherDisplay:10.37,2013-04-26 21:31:00,
2013-04-26 17:36:00,59.1,29.2,30.01,WNW,286,2.8,4.6,32,0.00,CLR,SCT,0.00,WeatherDisplay:10.37,2013-04-26 21:36:00,
2013-04-26 17:41:00,59.3,29.4,30.01,WNW,299,1.9,4.6,32,0.00,CLR,SCT,0.00,WeatherDisplay:10.37,2013-04-26 21:41:00,
2013-04-26 17:46:00,59.2,29.3,30.01,North,355,2.7,3.5,32,0.00,CLR,SCT,0.00,WeatherDisplay:10.37,2013-04-26 21:46:00,
2013-04-26 17:51:00,59.1,28.5,30.01,NW,315,5.9,9.2,31,0.00,CLR,SCT,0.00,WeatherDisplay:10.37,2013-04-26 21:51:00,
2013-04-26 17:56:00,58.8,29.0,30.01,North,351,5.8,9.2,32,0.00,CLR,SCT,0.00,WeatherDisplay:10.37,2013-04-26 21:56:00,
2013-04-26 18:01:00,58.5,28.7,30.01,NW,320,1.9,5.8,32,0.00,CLR,SCT,0.00,WeatherDisplay:10.37,2013-04-26 22:01:00,
2013-04-26 18:06:00,58.4,29.4,30.01,NNW,327,1.4,4.6,33,0.00,CLR,SCT,0.00,WeatherDisplay:10.37,2013-04-26 22:06:00,
2013-04-26 18:11:00,58.5,28.7,30.02,NW,326,4.0,4.6,32,0.00,CLR,SCT,0.00,WeatherDisplay:10.37,2013-04-26 22:11:00,
2013-04-26 18:16:00,58.5,29.5,30.02,NW,319,3.6,3.6,33,0.00,CLR,SCT,0.00,WeatherDisplay:10.37,2013-04-26 22:16:00,
2013-04-26 18:21:00,58.4,28.6,30.02,NW,315,2.9,5.0,32,0.00,CLR,SCT,0.00,WeatherDisplay:10.37,2013-04-26 22:21:00,
2013-04-26 18:26:00,58.1,29.1,30.02,NNW,338,2.1,4.6,33,0.00,CLR,SCT,0.00,WeatherDisplay:10.37,2013-04-26 22:26:00,
2013-04-26 18:31:00,58.0,29.0,30.02,WNW,292,3.8,5.8,33,0.00,CLR,SCT,0.00,WeatherDisplay:10.37,2013-04-26 22:31:00,
2013-04-26 18:36:00,57.8,29.6,30.02,NNE,12,1.8,3.5,34,0.00,CLR,SCT,0.00,WeatherDisplay:10.37,2013-04-26 22:36:00,
2013-04-26 18:41:00,57.7,28.8,30.02,WNW,297,3.8,5.8,33,0.00,CLR,SCT,0.00,WeatherDisplay:10.37,2013-04-26 22:41:00,
2013-04-26 18:46:00,57.5,29.3,30.02,NNW,345,1.4,3.5,34,0.00,CLR,SCT,0.00,WeatherDisplay:10.37,2013-04-26 22:46:00,
2013-04-26 18:51:00,57.3,29.1,30.02,NNW,336,3.1,4.6,34,0.00,CLR,SCT,0.00,WeatherDisplay:10.37,2013-04-26 22:51:00,
2013-04-26 18:56:00,57.1,29.7,30.02,West,281,3.5,3.5,35,0.00,CLR,SCT,0.00,WeatherDisplay:10.37,2013-04-26 22:56:00,
2013-04-26 19:01:00,56.8,28.7,30.02,NW,317,3.5,5.8,34,0.00,CLR,SCT,0.00,WeatherDisplay:10.37,2013-04-26 23:01:00,
2013-04-26 19:06:00,56.5,29.1,30.02,North,360,5.2,8.0,35,0.00,CLR,SCT,0.00,WeatherDisplay:10.37,2013-04-26 23:06:00,
2013-04-26 19:11:00,56.3,29.0,30.02,NW,311,3.6,8.1,35,0.00,CLR,SCT,0.00,WeatherDisplay:10.37,2013-04-26 23:11:00,
2013-04-26 19:16:00,56.1,28.8,30.03,NNW,342,3.3,6.9,35,0.00,CLR,SCT,0.00,WeatherDisplay:10.37,2013-04-26 23:16:00,
2013-04-26 19:21:00,55.9,29.3,30.03,NNW,328,1.9,4.6,36,0.00,CLR,SCT,0.00,WeatherDisplay:10.37,2013-04-26 23:21:00,
2013-04-26 19:26:00,55.5,29.0,30.03,North,360,3.6,6.9,36,0.00,CLR,SCT,0.00,WeatherDisplay:10.37,2013-04-26 23:26:00,
2013-04-26 19:31:00,55.3,28.8,30.03,NW,319,4.1,6.0,36,0.00,CLR,SCT,0.00,WeatherDisplay:10.37,2013-04-26 23:31:00,
2013-04-26 19:36:00,55.0,29.2,30.03,NW,315,2.3,4.6,37,0.00,CLR,SCT,0.00,WeatherDisplay:10.37,2013-04-26 23:36:00,
2013-04-26 19:41:00,54.6,28.8,30.03,NNE,23,3.4,6.9,37,0.00,CLR,SCT,0.00,WeatherDisplay:10.37,2013-04-26 23:41:00,
2013-04-26 19:46:00,54.3,29.2,30.03,NNW,343,2.8,5.8,38,0.00,CLR,SCT,0.00,WeatherDisplay:10.37,2013-04-26 23:46:00,
2013-04-26 19:51:00,54.0,28.9,30.03,North,5,5.9,9.2,38,0.00,CLR,SCT,0.00,WeatherDisplay:10.37,2013-04-26 23:51:00,
2013-04-26 20:05:00,53.2,28.9,30.04,NW,326,2.6,9.2,39,0.00,CLR,SCT,0.00,WeatherDisplay:10.37,2013-04-27 00:05:00,
2013-04-26 20:10:00,52.9,29.2,30.04,North,355,3.4,9.2,40,0.00,CLR,SCT,0.00,WeatherDisplay:10.37,2013-04-27 00:10:00,
2013-04-26 20:15:00,52.7,29.0,30.04,NNW,332,5.0,7.0,40,0.00,CLR,SCT,0.00,WeatherDisplay:10.37,2013-04-27 00:15:00,
2013-04-26 20:20:00,52.5,29.5,30.04,North,355,5.2,8.1,41,0.00,CLR,SCT,0.00,WeatherDisplay:10.37,2013-04-27 00:20:00,
2013-04-26 20:25:00,52.3,29.3,30.04,NNW,333,5.7,8.1,41,0.00,CLR,SCT,0.00,WeatherDisplay:10.37,2013-04-27 00:25:00,
2013-04-26 20:30:00,52.1,29.7,30.04,NNW,330,4.1,5.0,42,0.00,CLR,SCT,0.00,WeatherDisplay:10.37,2013-04-27 00:30:00,
2013-04-26 20:35:00,51.8,29.4,30.04,North,355,4.8,6.9,42,0.00,CLR,SCT,0.00,WeatherDisplay:10.37,2013-04-27 00:35:00,
2013-04-26 20:40:00,51.6,29.8,30.04,NNW,338,5.6,8.1,43,0.00,CLR,SCT,0.00,WeatherDisplay:10.37,2013-04-27 00:40:00,
2013-04-26 20:45:00,51.4,30.2,30.05,NW,305,4.0,6.0,44,0.00,CLR,SCT,0.00,WeatherDisplay:10.37,2013-04-27 00:45:00,
2013-04-26 20:50:00,51.1,29.9,30.05,NW,321,2.1,4.6,44,0.00,CLR,SCT,0.00,WeatherDisplay:10.37,2013-04-27 00:50:00,
2013-04-26 20:55:00,50.8,29.6,30.05,NW,322,3.9,5.0,44,0.00,CLR,SCT,0.00,WeatherDisplay:10.37,2013-04-27 00:55:00,
2013-04-26 21:00:00,50.7,30.1,30.05,North,350,3.0,4.6,45,0.00,CLR,SCT,0.00,WeatherDisplay:10.37,2013-04-27 01:00:00,
2013-04-26 21:05:00,50.4,29.8,30.05,NNW,328,3.9,5.8,45,0.00,CLR,SCT,0.00,WeatherDisplay:10.37,2013-04-27 01:05:00,
2013-04-26 21:10:00,50.2,30.2,30.05,NNW,329,5.6,7.0,46,0.00,CLR,SCT,0.00,WeatherDisplay:10.37,2013-04-27 01:10:00,
2013-04-26 21:15:00,50.1,30.1,30.06,NW,311,3.2,3.5,46,0.00,CLR,SCT,0.00,WeatherDisplay:10.37,2013-04-27 01:15:00,
2013-04-26 21:20:00,49.9,30.5,30.06,NW,314,4.0,5.8,47,0.00,CLR,SCT,0.00,WeatherDisplay:10.37,2013-04-27 01:20:00,
2013-04-26 21:25:00,49.7,30.3,30.06,NW,323,3.6,4.6,47,0.00,CLR,SCT,0.00,WeatherDisplay:10.37,2013-04-27 01:25:00,
2013-04-26 21:30:00,49.5,30.1,30.07,North,355,4.3,7.0,47,0.00,CLR,SCT,0.00,WeatherDisplay:10.37,2013-04-27 01:30:00,
2013-04-26 21:35:00,49.4,30.5,30.07,NW,315,4.2,4.6,48,0.00,CLR,SCT,0.00,WeatherDisplay:10.37,2013-04-27 01:35:00,
2013-04-26 21:40:00,49.3,29.9,30.07,North,350,5.3,6.0,47,0.00,CLR,SCT,0.00,WeatherDisplay:10.37,2013-04-27 01:40:00,
2013-04-26 21:45:00,49.2,30.3,30.07,NNW,344,3.6,4.6,48,0.00,CLR,SCT,0.00,WeatherDisplay:10.37,2013-04-27 01:45:00,
2013-04-26 21:50:00,49.0,30.1,30.07,North,351,3.6,5.8,48,0.00,CLR,SCT,0.00,WeatherDisplay:10.37,2013-04-27 01:50:00,
2013-04-26 21:55:00,48.8,30.0,30.07,NNW,337,2.3,3.5,48,0.00,CLR,SCT,0.00,WeatherDisplay:10.37,2013-04-27 01:55:00,
2013-04-26 22:00:00,48.7,30.4,30.07,NNW,328,2.6,5.0,49,0.00,CLR,SCT,0.00,WeatherDisplay:10.37,2013-04-27 02:00:00,
2013-04-26 22:05:00,48.5,29.7,30.07,NNW,330,3.3,5.0,48,0.00,CLR,SCT,0.00,WeatherDisplay:10.37,2013-04-27 02:05:00,
2013-04-26 22:10:00,48.4,29.6,30.07,NNW,344,2.2,4.6,48,0.00,CLR,SCT,0.00,WeatherDisplay:10.37,2013-04-27 02:10:00,
2013-04-26 22:15:00,48.3,30.0,30.08,NNW,329,5.0,6.0,49,0.00,CLR,SCT,0.00,WeatherDisplay:10.37,2013-04-27 02:15:00,
2013-04-26 22:20:00,48.2,29.4,30.08,NNW,338,2.2,4.0,48,0.00,CLR,SCT,0.00,WeatherDisplay:10.37,2013-04-27 02:20:00,
2013-04-26 22:25:00,48.1,29.8,30.08,NNW,327,3.3,5.0,49,0.00,CLR,SCT,0.00,WeatherDisplay:10.37,2013-04-27 02:25:00,
2013-04-26 22:30:00,47.9,29.1,30.08,North,351,3.5,5.8,48,0.00,CLR,SCT,0.00,WeatherDisplay:10.37,2013-04-27 02:30:00,
2013-04-26 22:35:00,47.9,29.1,30.08,NNW,333,3.8,5.8,48,0.00,CLR,SCT,0.00,WeatherDisplay:10.37,2013-04-27 02:35:00,
2013-04-26 22:40:00,47.7,28.4,30.08,North,349,4.9,4.9,47,0.00,CLR,SCT,0.00,WeatherDisplay:10.37,2013-04-27 02:40:00,
2013-04-26 22:45:00,47.7,28.9,30.08,NNW,331,3.9,4.0,48,0.00,CLR,SCT,0.00,WeatherDisplay:10.37,2013-04-27 02:45:00,
2013-04-26 22:50:00,47.6,28.9,30.08,WNW,290,3.3,4.6,48,0.00,CLR,SCT,0.00,WeatherDisplay:10.37,2013-04-27 02:50:00,
2013-04-26 22:55:00,47.4,28.2,30.08,NNW,327,1.9,3.5,47,0.00,CLR,SCT,0.00,WeatherDisplay:10.37,2013-04-27 02:55:00,
2013-04-26 23:00:00,47.3,28.1,30.08,NNW,329,5.2,9.0,47,0.00,CLR,SCT,0.00,WeatherDisplay:10.37,2013-04-27 03:00:00,
2013-04-26 23:05:00,47.3,28.1,30.08,NNW,338,4.9,6.0,47,0.00,CLR,SCT,0.00,WeatherDisplay:10.37,2013-04-27 03:05:00,
2013-04-26 23:10:00,47.3,27.5,30.08,NNW,336,4.6,4.6,46,0.00,CLR,SCT,0.00,WeatherDisplay:10.37,2013-04-27 03:10:00,
2013-04-26 23:15:00,47.2,27.5,30.08,NW,321,4.1,4.6,46,0.00,CLR,SCT,0.00,WeatherDisplay:10.37,2013-04-27 03:15:00,
2013-04-26 23:20:00,47.1,27.4,30.08,NNW,348,3.1,4.6,46,0.00,CLR,SCT,0.00,WeatherDisplay:10.37,2013-04-27 03:20:00,
2013-04-26 23:25:00,47.1,27.4,30.08,NNW,335,3.5,5.0,46,0.00,CLR,SCT,0.00,WeatherDisplay:10.37,2013-04-27 03:25:00,
2013-04-26 23:30:00,47.0,27.3,30.08,NW,323,3.7,4.0,46,0.00,CLR,SCT,0.00,WeatherDisplay:10.37,2013-04-27 03:30:00,
2013-04-26 23:35:00,46.9,27.2,30.08,NNW,341,3.1,4.6,46,0.00,CLR,SCT,0.00,WeatherDisplay:10.37,2013-04-27 03:35:00,
2013-04-26 23:40:00,46.9,26.6,30.08,NW,314,4.6,6.9,45,0.00,CLR,SCT,0.00,WeatherDisplay:10.37,2013-04-27 03:40:00,
2013-04-26 23:45:00,46.7,27.0,30.08,NNW,346,3.6,5.8,46,0.00,CLR,SCT,0.00,WeatherDisplay:10.37,2013-04-27 03:45:00,
2013-04-26 23:50:00,46.6,26.9,30.08,North,5,3.9,6.9,46,0.00,CLR,SCT,0.00,WeatherDisplay:10.37,2013-04-27 03:50:00,
2013-04-26 23:55:00,46.5,26.8,30.08,NW,325,1.7,4.6,46,0.00,CLR,SCT,0.00,WeatherDisplay:10.37,2013-04-27 03:55:00,